User: anonymous   Login
Location: Boston
(42.3580°N, 71.0600°W)
Time: 13:23:22
(UTC-05:00)
Language:

Envisat - Orbit

View from above orbital plane
View from above orbital plane
View from above satellite
View from above satellite

Ground track
Ground track

The orbit data is extracted from the following two-line orbital elements,

1 27386U 02009A   18320.57943106  .00000004  00000-0  14829-4 0  9998
2 27386  98.1701 347.3428 0001288  97.2970  75.5239 14.37934469875425
Epoch (UTC): 16 November 2018 13:54:22
Eccentricity: 0.0001288
inclination: 98.1701°
perigee height: 764 km
apogee height: 766 km
right ascension of ascending node: 347.3428°
argument of perigee: 97.2970°
revolutions per day: 14.37934469
mean anomaly at epoch: 75.5239°
orbit number at epoch: 87542

The dashed part of the orbit path shows where the satellite is in the earth's shadow,  

DLR